Time,TemperatureF,DewpointF,PressureIn,WindDirection,WindDirectionDegrees,WindSpeedMPH,WindSpeedGustMPH,Humidity,HourlyPrecipIn,Conditions,Clouds,dailyrainin,SoftwareType,DateUTC
2013-02-21 00:13:00,25.1,23.0,30.13,WNW,296,9.0,12.0,92,0.00,,,0.15,weatherlink.com 1.10,2013-02-21 08:13:00,
2013-02-21 00:28:00,25.4,23.0,30.13,NW,313,7.0,12.0,92,0.00,,,0.00,weatherlink.com 1.10,2013-02-21 08:28:00,
2013-02-21 00:43:00,25.7,24.0,30.14,NNW,333,10.0,13.0,91,0.00,,,0.00,weatherlink.com 1.10,2013-02-21 08:43:00,
2013-02-21 00:58:00,25.3,23.0,30.14,NNW,333,3.0,12.0,91,0.00,,,0.00,weatherlink.com 1.10,2013-02-21 08:58:00,
2013-02-21 01:13:00,25.3,23.0,30.14,NW,306,5.0,12.0,91,0.00,,,0.00,weatherlink.com 1.10,2013-02-21 09:13:00,
2013-02-21 01:28:00,24.9,23.0,30.14,NW,313,4.0,10.0,92,0.00,,,0.00,weatherlink.com 1.10,2013-02-21 09:28:00,
2013-02-21 01:43:00,25.0,23.0,30.14,NW,316,7.0,12.0,91,0.00,,,0.00,weatherlink.com 1.10,2013-02-21 09:43:00,
2013-02-21 01:58:00,25.3,23.0,30.13,NW,319,4.0,11.0,91,0.00,,,0.00,weatherlink.com 1.10,2013-02-21 09:58:00,
2013-02-21 02:13:00,25.2,23.0,30.13,NNW,344,5.0,11.0,91,0.00,,,0.00,weatherlink.com 1.10,2013-02-21 10:13:00,
2013-02-21 02:28:00,24.3,22.0,30.13,WNW,286,4.0,8.0,90,0.00,,,0.00,weatherlink.com 1.10,2013-02-21 10:28:00,
2013-02-21 02:43:00,23.9,22.0,30.12,WNW,293,7.0,8.0,91,0.00,,,0.00,weatherlink.com 1.10,2013-02-21 10:43:00,
2013-02-21 02:58:00,24.0,22.0,30.12,WNW,291,6.0,13.0,91,0.00,,,0.00,weatherlink.com 1.10,2013-02-21 10:58:00,
2013-02-21 03:13:00,24.6,22.0,30.12,West,273,5.0,11.0,91,0.00,,,0.00,weatherlink.com 1.10,2013-02-21 11:13:00,
2013-02-21 03:28:00,24.5,22.0,30.11,WNW,291,7.0,11.0,91,0.00,,,0.00,weatherlink.com 1.10,2013-02-21 11:28:00,
2013-02-21 03:43:00,24.7,22.0,30.11,WNW,291,4.0,10.0,90,0.00,,,0.00,weatherlink.com 1.10,2013-02-21 11:43:00,
2013-02-21 03:58:00,24.4,22.0,30.11,West,269,5.0,10.0,90,0.00,,,0.00,weatherlink.com 1.10,2013-02-21 11:58:00,
2013-02-21 04:13:00,24.5,22.0,30.11,WNW,287,3.0,10.0,90,0.00,,,0.00,weatherlink.com 1.10,2013-02-21 12:13:00,
2013-02-21 04:28:00,24.2,22.0,30.12,WNW,283,3.0,9.0,90,0.00,,,0.00,weatherlink.com 1.10,2013-02-21 12:28:00,
2013-02-21 04:43:00,24.5,22.0,30.12,WNW,288,5.0,9.0,90,0.00,,,0.00,weatherlink.com 1.10,2013-02-21 12:43:00,
2013-02-21 04:58:00,24.8,22.0,30.12,West,280,2.0,8.0,90,0.00,,,0.00,weatherlink.com 1.10,2013-02-21 12:58:00,
2013-02-21 05:13:00,24.6,22.0,30.12,WNW,291,1.0,10.0,90,0.00,,,0.00,weatherlink.com 1.10,2013-02-21 13:13:00,
2013-02-21 05:28:00,23.9,22.0,30.12,WNW,286,2.0,8.0,91,0.00,,,0.00,weatherlink.com 1.10,2013-02-21 13:28:00,
2013-02-21 05:43:00,23.6,21.0,30.12,West,273,1.0,7.0,91,0.00,,,0.00,weatherlink.com 1.10,2013-02-21 13:43:00,
2013-02-21 05:58:00,22.5,21.0,30.13,WNW,288,5.0,6.0,92,0.00,,,0.00,weatherlink.com 1.10,2013-02-21 13:58:00,
2013-02-21 06:13:00,21.9,21.0,30.13,WNW,292,5.0,10.0,94,0.00,,,0.00,weatherlink.com 1.10,2013-02-21 14:13:00,
2013-02-21 06:28:00,22.8,22.0,30.13,WNW,287,4.0,11.0,95,0.00,,,0.00,weatherlink.com 1.10,2013-02-21 14:28:00,
2013-02-21 06:43:00,23.5,23.0,30.13,WNW,283,8.0,10.0,96,0.00,,,0.00,weatherlink.com 1.10,2013-02-21 14:43:00,
2013-02-21 06:58:00,24.4,24.0,30.14,SW,236,2.0,11.0,96,0.00,,,0.00,weatherlink.com 1.10,2013-02-21 14:58:00,
2013-02-21 07:13:00,25.3,24.0,30.14,WNW,292,4.0,10.0,96,0.00,,,0.00,weatherlink.com 1.10,2013-02-21 15:13:00,
2013-02-21 07:28:00,25.6,25.0,30.14,WSW,257,10.0,11.0,96,0.00,,,0.00,weatherlink.com 1.10,2013-02-21 15:28:00,
2013-02-21 07:43:00,26.4,25.0,30.15,West,266,7.0,8.0,96,0.00,,,0.00,weatherlink.com 1.10,2013-02-21 15:43:00,
2013-02-21 07:59:00,27.2,26.0,30.15,NW,304,4.0,6.0,96,0.00,,,0.00,weatherlink.com 1.10,2013-02-21 15:59:00,
2013-02-21 08:14:00,27.6,27.0,30.15,West,278,6.0,18.0,96,0.00,,,0.00,weatherlink.com 1.10,2013-02-21 16:14:00,
2013-02-21 08:29:00,27.8,27.0,30.15,WNW,295,11.0,11.0,96,0.00,,,0.00,weatherlink.com 1.10,2013-02-21 16:29:00,
2013-02-21 08:44:00,28.1,27.0,30.16,NW,307,5.0,11.0,96,0.00,,,0.00,weatherlink.com 1.10,2013-02-21 16:44:00,
2013-02-21 08:59:00,28.6,27.0,30.15,West,261,10.0,14.0,95,0.00,,,0.00,weatherlink.com 1.10,2013-02-21 16:59:00,
2013-02-21 09:14:00,29.1,28.0,30.15,NW,306,8.0,12.0,95,0.00,,,0.00,weatherlink.com 1.10,2013-02-21 17:14:00,
2013-02-21 09:29:00,29.8,29.0,30.15,WNW,290,8.0,13.0,95,0.00,,,0.00,weatherlink.com 1.10,2013-02-21 17:29:00,
2013-02-21 09:44:00,30.1,29.0,30.14,WSW,240,11.0,14.0,95,0.00,,,0.00,weatherlink.com 1.10,2013-02-21 17:44:00,
2013-02-21 09:59:00,29.9,29.0,30.14,WNW,287,12.0,16.0,95,0.00,,,0.00,weatherlink.com 1.10,2013-02-21 17:59:00,
2013-02-21 10:14:00,30.1,29.0,30.15,West,276,6.0,13.0,95,0.00,,,0.00,weatherlink.com 1.10,2013-02-21 18:14:00,
2013-02-21 10:29:00,30.3,29.0,30.14,West,281,8.0,19.0,94,0.00,,,0.00,weatherlink.com 1.10,2013-02-21 18:29:00,
2013-02-21 10:44:00,30.5,29.0,30.14,WSW,248,6.0,16.0,94,0.00,,,0.00,weatherlink.com 1.10,2013-02-21 18:44:00,
2013-02-21 10:59:00,31.1,30.0,30.13,WSW,258,12.0,22.0,94,0.01,,,0.01,weatherlink.com 1.10,2013-02-21 18:59:00,
2013-02-21 11:14:00,31.9,30.0,30.13,WSW,256,8.0,16.0,92,0.01,,,0.01,weatherlink.com 1.10,2013-02-21 19:14:00,
2013-02-21 11:29:00,32.9,31.0,30.14,SW,215,9.0,16.0,92,0.01,,,0.01,weatherlink.com 1.10,2013-02-21 19:29:00,
2013-02-21 11:44:00,32.9,31.0,30.14,West,269,4.0,14.0,91,0.01,,,0.01,weatherlink.com 1.10,2013-02-21 19:44:00,
2013-02-21 11:59:00,32.0,31.0,30.14,West,279,2.0,11.0,94,0.00,,,0.01,weatherlink.com 1.10,2013-02-21 19:59:00,
2013-02-21 12:14:00,32.0,30.0,30.13,West,277,5.0,11.0,93,0.00,,,0.01,weatherlink.com 1.10,2013-02-21 20:14:00,
2013-02-21 12:29:00,31.7,30.0,30.11,WSW,237,5.0,8.0,94,0.00,,,0.01,weatherlink.com 1.10,2013-02-21 20:29:00,
2013-02-21 12:44:00,33.8,32.0,30.11,WNW,288,3.0,12.0,92,0.00,,,0.01,weatherlink.com 1.10,2013-02-21 20:44:00,
2013-02-21 12:59:00,33.5,31.0,30.11,WNW,286,5.0,9.0,91,0.00,,,0.01,weatherlink.com 1.10,2013-02-21 20:59:00,
2013-02-21 13:14:00,33.3,31.0,30.10,WSW,255,5.0,11.0,90,0.01,,,0.02,weatherlink.com 1.10,2013-02-21 21:14:00,
2013-02-21 13:29:00,33.0,31.0,30.10,WSW,257,3.0,7.0,92,0.01,,,0.02,weatherlink.com 1.10,2013-02-21 21:29:00,
2013-02-21 13:44:00,32.9,31.0,30.10,West,273,1.0,5.0,94,0.01,,,0.02,weatherlink.com 1.10,2013-02-21 21:44:00,
2013-02-21 13:59:00,32.5,31.0,30.10,South,186,4.0,6.0,95,0.03,,,0.04,weatherlink.com 1.10,2013-02-21 21:59:00,
2013-02-21 14:14:00,32.1,31.0,30.10,South,179,1.0,6.0,96,0.03,,,0.05,weatherlink.com 1.10,2013-02-21 22:14:00,
2013-02-21 14:29:00,31.9,31.0,30.10,SSW,197,0.0,4.0,96,0.03,,,0.05,weatherlink.com 1.10,2013-02-21 22:29:00,
2013-02-21 14:44:00,31.9,31.0,30.10,SSW,195,1.0,3.0,96,0.03,,,0.05,weatherlink.com 1.10,2013-02-21 22:44:00,
2013-02-21 14:59:00,31.9,31.0,30.09,SW,223,3.0,4.0,96,0.01,,,0.05,weatherlink.com 1.10,2013-02-21 22:59:00,
2013-02-21 15:14:00,31.6,31.0,30.10,SW,224,0.0,3.0,96,0.00,,,0.05,weatherlink.com 1.10,2013-02-21 23:14:00,
2013-02-21 15:29:00,31.7,31.0,30.09,SW,226,0.0,3.0,96,0.00,,,0.05,weatherlink.com 1.10,2013-02-21 23:29:00,
2013-02-21 15:44:00,31.8,31.0,30.09,SW,226,0.0,3.0,96,0.00,,,0.05,weatherlink.com 1.10,2013-02-21 23:44:00,
2013-02-21 15:59:00,32.1,31.0,30.09,SW,226,1.0,1.0,96,0.00,,,0.05,weatherlink.com 1.10,2013-02-21 23:59:00,
2013-02-21 16:14:00,32.4,31.0,30.09,North,11,3.0,6.0,96,0.00,,,0.05,weatherlink.com 1.10,2013-02-22 00:14:00,
2013-02-21 16:29:00,32.5,31.0,30.10,NNE,21,4.0,6.0,95,0.01,,,0.06,weatherlink.com 1.10,2013-02-22 00:29:00,
2013-02-21 16:44:00,32.3,31.0,30.10,North,5,4.0,6.0,95,0.01,,,0.06,weatherlink.com 1.10,2013-02-22 00:44:00,
2013-02-21 16:59:00,32.1,31.0,30.10,North,11,2.0,7.0,95,0.01,,,0.06,weatherlink.com 1.10,2013-02-22 00:59:00,
2013-02-21 17:14:00,31.6,30.0,30.11,NE,38,6.0,8.0,95,0.01,,,0.06,weatherlink.com 1.10,2013-02-22 01:14:00,
2013-02-21 17:29:00,30.9,30.0,30.11,NE,38,3.0,4.0,96,0.01,,,0.07,weatherlink.com 1.10,2013-02-22 01:29:00,
2013-02-21 17:44:00,30.6,30.0,30.12,NE,42,0.0,4.0,96,0.01,,,0.07,weatherlink.com 1.10,2013-02-22 01:44:00,
2013-02-21 17:59:00,30.2,29.0,30.13,NE,36,6.0,6.0,95,0.01,,,0.07,weatherlink.com 1.10,2013-02-22 01:59:00,
2013-02-21 18:14:00,29.6,28.0,30.13,NE,55,0.0,7.0,95,0.01,,,0.07,weatherlink.com 1.10,2013-02-22 02:14:00,
2013-02-21 18:29:00,29.3,28.0,30.14,NNE,15,2.0,11.0,95,0.00,,,0.07,weatherlink.com 1.10,2013-02-22 02:29:00,
2013-02-21 18:44:00,28.7,27.0,30.14,NNE,31,2.0,10.0,94,0.00,,,0.07,weatherlink.com 1.10,2013-02-22 02:44:00,
2013-02-21 18:59:00,28.5,27.0,30.15,NNE,13,6.0,10.0,94,0.00,,,0.07,weatherlink.com 1.10,2013-02-22 02:59:00,
2013-02-21 19:14:00,28.4,27.0,30.15,NNE,30,7.0,10.0,94,0.00,,,0.07,weatherlink.com 1.10,2013-02-22 03:14:00,
2013-02-21 19:29:00,28.1,27.0,30.16,North,9,2.0,8.0,94,0.00,,,0.07,weatherlink.com 1.10,2013-02-22 03:29:00,
2013-02-21 19:59:00,27.4,26.0,30.17,NNE,19,2.0,6.0,94,0.00,,,0.07,weatherlink.com 1.10,2013-02-22 03:59:00,
2013-02-21 20:29:00,27.8,26.0,30.18,NE,40,3.0,11.0,92,0.00,,,0.07,weatherlink.com 1.10,2013-02-22 04:29:00,
2013-02-21 20:44:00,28.0,26.0,30.18,NE,40,10.0,13.0,90,0.00,,,0.07,weatherlink.com 1.10,2013-02-22 04:44:00,
2013-02-21 20:59:00,28.2,25.0,30.18,NE,40,9.0,16.0,89,0.00,,,0.07,weatherlink.com 1.10,2013-02-22 04:59:00,
2013-02-21 21:29:00,28.0,24.0,30.20,NNE,22,6.0,12.0,84,0.00,,,0.07,weatherlink.com 1.10,2013-02-22 05:29:00,
2013-02-21 21:44:00,27.8,24.0,30.21,SSE,163,2.0,10.0,86,0.00,,,0.07,weatherlink.com 1.10,2013-02-22 05:44:00,
2013-02-21 21:59:00,27.6,24.0,30.21,NE,36,7.0,9.0,87,0.00,,,0.07,weatherlink.com 1.10,2013-02-22 05:59:00,
2013-02-21 22:14:00,27.6,24.0,30.20,NE,41,3.0,12.0,85,0.00,,,0.07,weatherlink.com 1.10,2013-02-22 06:14:00,
2013-02-21 22:29:00,27.7,23.0,30.21,NE,54,2.0,10.0,83,0.00,,,0.07,weatherlink.com 1.10,2013-02-22 06:29:00,
2013-02-21 22:44:00,28.0,23.0,30.20,NNW,331,11.0,16.0,82,0.00,,,0.07,weatherlink.com 1.10,2013-02-22 06:44:00,
2013-02-21 22:59:00,27.6,23.0,30.21,NNE,15,3.0,10.0,83,0.00,,,0.07,weatherlink.com 1.10,2013-02-22 06:59:00,
2013-02-21 23:14:00,27.5,23.0,30.20,NE,44,11.0,14.0,82,0.00,,,0.07,weatherlink.com 1.10,2013-02-22 07:14:00,
2013-02-21 23:29:00,27.5,22.0,30.21,NE,42,4.0,13.0,81,0.00,,,0.07,weatherlink.com 1.10,2013-02-22 07:29:00,
2013-02-21 23:44:00,27.6,22.0,30.20,NNE,18,6.0,20.0,79,0.00,,,0.07,weatherlink.com 1.10,2013-02-22 07:44:00,